Location: Banios
(43.0451°N, 0.2335°E)
Time: 13:06:37
(UTC+00:00)

BREEZE M DEB (TANK) - Pass Details

Date: 25 January 2021
Orbit: 284 x 14499 km, 49.5° (Epoch: 25 February)

Event Time Altitude Azimuth Distance (km) Brightness Sun altitude
Exits shadow 04:59:41 13° 112° (ESE) 1,051 4.6 -25.7°
Drops below altitude 10° 05:00:24 10° 96° (E) 1,274 5.2 -25.6°
Sets 05:03:32 0° 68° (ENE) 2,700 6.9 -25.0°
